Location: Stoke Bliss
(52.2667°N, 2.5167°W)
Time: 13:58:44
(UTC+00:00)

Resurs 01 Rocket - Pass Details

Date: 03 March 2021
Orbit: 635 x 643 km, 98.0° (Epoch: 13 April)

Event Time Altitude Azimuth Distance (km) Brightness Sun altitude
Exits shadow 20:50:14 62° 305° (NW) 720 2.0 -27.1°
Drops below altitude 10° 20:54:07 10° 342° (NNW) 2,037 4.7 -27.7°
Sets 20:56:21 0° 345° (NNW) 2,952 5.6 -28.0°
